Find Landsat 9

NORAD ID: 49260 Int'l Des: 2021-088 Owner: USGS/GSFC Country: US operational
LEOCIRCULARRETROGRADESSO

当前视图

正在加载3D地球...

关于 Landsat 9

正在加载描述...

即将过境

Passes for default location (London). Set your location on the main map for personalized predictions.

高度历史

Loading altitude history...

两行轨道根数

1 49260U 21088A 26151.16642163 .00000488 00000-0 11826-3 0 9995
2 49260 98.1855 221.5716 0001483 95.4815 264.6552 14.57121688248525
Epoch: May 31, 2026 • Age: 12 hours

当前状态

高度 713.7 km
速度 7.51 km/s
星下点 70.89°N, 63.04°W
发射日期 Sep 27, 2021
运行时间 4.6 years
类型 earth observation

技术详情

分类 Payload
质量 2710.00 kg
干质量 2390.00 kg
总质量 2710.00 kg
长度 5.80 m
直径 2.50 m
跨度 13.00 m
形状 Cyl hex + pan
制造商 NGISGA
平台类型 Leostar-3
阶段状态 In Orbit
所有者/国家 USGS/GSFC/US

Most Searched